This is the latest recevied weather packets stored in our database for station/object KO4LFZ. If no packets are shown the sender has not sent any weather packets the latest 10 day(s).
| Time | Temp. | Humidity | Pressure | Rain* | Wind** | Luminosity | Snow |
|---|---|---|---|---|---|---|---|
| 1777514955 | 16.11° C | 70% | 1014.9 hPa | 0 mm | - | 0 W/m² | - |
| 1777514651 | 16.11° C | 70% | 1014.7 hPa | 0 mm | - | 0 W/m² | - |
| 1777514349 | 16.67° C | 69% | 1015.1 hPa | 0 mm | - | 0 W/m² | - |
| 1777514045 | 16.67° C | 69% | 1015.2 hPa | 0 mm | - | 0 W/m² | - |
| 1777513743 | 16.67° C | 69% | 1015.6 hPa | 0 mm | - | 0 W/m² | - |
| 1777513440 | 16.67° C | 70% | 1015.3 hPa | 0 mm | - | 0 W/m² | - |
| 1777513136 | 16.67° C | 70% | 1015.1 hPa | 0 mm | - | 0 W/m² | - |
| 1777512832 | 16.11° C | 72% | 1015 hPa | 0 mm | - | 0 W/m² | - |
| 1777512529 | 16.11° C | 74% | 1015.4 hPa | 0 mm | - | 0 W/m² | - |
| 1777512225 | 16.11° C | 75% | 1015.1 hPa | 0 mm | - | 0 W/m² | - |
| 1777511923 | 16.11° C | 75% | 1015 hPa | 0 mm | - | 0 W/m² | - |
| 1777511620 | 16.67° C | 74% | 1015.1 hPa | 0 mm | - | 0 W/m² | - |
| 1777511318 | 16.67° C | 73% | 1015.1 hPa | 0 mm | - | 0 W/m² | - |
| 1777511013 | 16.67° C | 71% | 1014.7 hPa | 0 mm | - | 0 W/m² | - |
| 1777510711 | 16.67° C | 70% | 1014.4 hPa | 0 mm | - | 0 W/m² | - |
| 1777510406 | 16.67° C | 69% | 1014.3 hPa | 0 mm | - | 0 W/m² | - |
| 1777510103 | 17.22° C | 69% | 1014.3 hPa | 0 mm | - | 0 W/m² | - |
| 1777509800 | 17.22° C | 69% | 1014.3 hPa | 0 mm | - | 1 W/m² | - |
| 1777509495 | 17.22° C | 69% | 1014.1 hPa | 0 mm | - | 3 W/m² | - |
| 1777509193 | 17.22° C | 69% | 1013.9 hPa | 0 mm | - | 6 W/m² | - |
| 1777508890 | 17.22° C | 68% | 1013.5 hPa | 0 mm | - | 10 W/m² | - |
| 1777508586 | 17.22° C | 69% | 1013.5 hPa | 0 mm | - | 15 W/m² | - |
| 1777508284 | 17.22° C | 68% | 1013.4 hPa | 0 mm | - | 19 W/m² | - |
| 1777507981 | 17.78° C | 67% | 1013.8 hPa | 0 mm | - | 23 W/m² | - |
| 1777507677 | 17.78° C | 66% | 1013.6 hPa | 0 mm | - | 30 W/m² | - |
* Rain latest hour (hover to see other rain measurements)
** Current wind speed in m/s (hover to see current wind gust speed)